This demonstration page uses our WeatherBlox Daily Observations layout. Learn more.

Left ArrowRight Arrow

Hourly Observations for October 6, 2021

Temp ( °F °C ) Dew Point ( °F °C ) Humidity (%) Winds ( mph kmh ) Pressure ( in mb ) Visibility ( mi km ) Precip ( " mm )
12:53 am 00:53 Clear 59 15 49 9.4 69 69 SSE 6 9 30.15 1021 10 16 N/A
1:53 am 01:53 Clear 58 14.4 50 10 75 75 SSE 5 7 30.16 1021 10 16 N/A
2:53 am 02:53 Clear 57 13.9 50 10 78 78 SSE 7 11 30.16 1021 10 16 N/A
3:53 am 03:53 Clear 56 13.3 50 10 81 81 S 6 9 30.15 1021 10 16 N/A
4:53 am 04:53 Clear 53 11.7 50 10 89 89 S 5 7 30.15 1021 10 16 N/A
5:53 am 05:53 Clear 53 11.7 51 10.6 93 93 S 3 6 30.16 1021 10 16 N/A
6:53 am 06:53 Clear 50 10 48 8.9 93 93 N N/A 30.18 1022 9 14 N/A
7:53 am 07:53 Sunny with Mist and Fog 54 12.2 53 11.7 97 97 SE 5 7 30.18 1022 5 8 N/A
8:26 am 08:26 Partly Cloudy with Mist and Fog 54 12.2 53 11.7 97 97 SSE 6 9 30.18 1022 6 10 N/A
8:33 am 08:33 Mostly Cloudy with Mist and Fog 54 12.2 54 12.2 100 100 SSE 7 11 30.18 1022 2 3 N/A
8:36 am 08:36 Mostly Cloudy with Mist and Fog 54 12.2 54 12.2 100 100 SSE 7 11 30.18 1022 1 1 N/A
8:46 am 08:46 Cloudy with Fog 55 12.8 55 12.8 100 100 SSE 8 13 30.18 1022 0 0 N/A
8:53 am 08:53 Cloudy with Fog 54 12.2 54 12.2 100 100 SSE 8 13 30.17 1022 0 0 N/A
9:17 am 09:17 Cloudy with Mist and Fog 55 12.8 55 12.8 100 100 S 6 9 30.18 1022 1 1 N/A
9:44 am 09:44 Cloudy with Mist and Fog 56 13.3 56 13.3 100 100 SSE 8 13 30.18 1022 1 2 N/A
9:53 am 09:53 Cloudy with Mist and Fog 57 13.9 56 13.3 96 96 SSE 8 13 30.18 1022 2 2 N/A
10:01 am 10:01 Cloudy with Mist and Fog 57 13.9 56 13.3 96 96 SSE 7 11 30.18 1022 2 3 N/A
10:19 am 10:19 Cloudy with Mist and Fog 58 14.4 57 13.9 97 97 SSE 8 13 30.17 1022 5 8 N/A
10:39 am 10:39 Partly Cloudy 60 15.6 58 14.4 93 93 SSE 8 13 30.16 1021 9 14 N/A
10:53 am 10:53 Mostly Sunny 61 16.1 58 14.4 90 90 S 6 9 30.17 1022 10 16 N/A
11:53 am 11:53 Mostly Sunny 65 18.3 58 14.4 78 78 SSE 9 15 30.15 1021 10 16 N/A
12:53 pm 12:53 Partly Cloudy 70 21.1 57 13.9 64 64 S 9 15 30.13 1020 10 16 N/A
1:53 pm 13:53 Partly Cloudy 71 21.7 54 12.2 55 55 SE 12 19 30.10 1019 10 16 N/A
2:53 pm 14:53 Mostly Cloudy 71 21.7 52 11.1 51 51 SE 9 15 30.07 1018 10 16 N/A
3:53 pm 15:53 Mostly Cloudy 73 22.8 53 11.7 50 50 SSE 16 26 30.05 1018 10 16 N/A
4:53 pm 16:53 Mostly Sunny 73 22.8 54 12.2 51 51 SE 12 19 30.04 1017 10 16 N/A
5:53 pm 17:53 Partly Cloudy 72 22.2 54 12.2 53 53 SSE 9 15 30.04 1017 9 14 N/A
6:53 pm 18:53 Sunny 69 20.6 54 12.2 59 59 SE 8 13 30.04 1017 10 16 N/A
7:53 pm 19:53 Clear 66 18.9 53 11.7 63 63 SE 6 9 30.05 1018 10 16 N/A
8:53 pm 20:53 Clear 64 17.8 53 11.7 68 68 SE 9 15 30.06 1018 10 16 N/A
9:53 pm 21:53 Clear 63 17.2 52 11.1 68 68 SE 9 15 30.06 1018 10 16 N/A
10:53 pm 22:53 Clear 60 15.6 52 11.1 75 75 SE 10 17 30.05 1018 10 16 N/A
11:53 pm 23:53 Clear 60 15.6 53 11.7 78 78 SE 10 17 30.05 1018 10 16 N/A

Powered by AerisWeather